TimeEDT,TemperatureF,Dew PointF,Humidity,Sea Level PressureIn,VisibilityMPH,Wind Direction,Wind SpeedMPH,Gust SpeedMPH,PrecipitationIn,Events,Conditions,WindDirDegrees,DateUTC
12:54 AM,72.0,64.0,76,29.95,10.0,SW,6.9,-,N/A,,Overcast,230,2013-08-03 04:54:00
1:54 AM,72.0,64.0,76,29.94,10.0,SW,4.6,-,0.00,Rain,Light Rain,220,2013-08-03 05:54:00
2:54 AM,70.0,66.0,87,29.94,5.0,WNW,8.1,-,0.08,Rain,Rain,290,2013-08-03 06:54:00
3:54 AM,69.1,66.0,90,29.95,5.0,West,3.5,-,0.10,Rain-Thunderstorm,Light Thunderstorms and Rain,280,2013-08-03 07:54:00
4:09 AM,69.8,66.2,88,29.96,1.8,West,3.5,-,0.05,Rain-Thunderstorm,Heavy Thunderstorms and Rain,260,2013-08-03 08:09:00
4:24 AM,69.8,66.2,88,29.96,2.5,Calm,Calm,-,0.11,Rain-Thunderstorm,Thunderstorms and Rain,0,2013-08-03 08:24:00
4:48 AM,69.8,66.2,88,29.96,2.5,SSW,3.5,-,0.18,Rain,Rain,200,2013-08-03 08:48:00
4:49 AM,69.1,66.9,93,29.94,2.5,South,4.6,-,0.19,Rain,Rain,190,2013-08-03 08:49:00
5:00 AM,69.8,66.2,88,29.95,1.8,South,5.8,-,0.07,Rain,Heavy Rain,170,2013-08-03 09:00:00
5:12 AM,69.8,66.2,88,29.94,2.0,SSE,6.9,-,0.14,Rain,Heavy Rain,150,2013-08-03 09:12:00
5:25 AM,68.0,66.2,94,29.95,5.0,SSW,8.1,-,0.17,Rain,Light Rain,200,2013-08-03 09:25:00
5:50 AM,68.0,66.2,94,29.95,2.0,South,6.9,-,0.24,Rain,Rain,190,2013-08-03 09:50:00
5:54 AM,68.0,66.0,93,29.93,2.0,South,6.9,-,0.25,Rain,Heavy Rain,190,2013-08-03 09:54:00
6:10 AM,68.0,66.2,94,29.94,5.0,South,6.9,-,0.06,Rain,Light Rain,190,2013-08-03 10:10:00
6:24 AM,68.0,66.2,94,29.95,3.0,SSW,5.8,-,0.07,Rain,Rain,210,2013-08-03 10:24:00
6:38 AM,68.0,66.2,94,29.96,6.0,WSW,5.8,-,0.07,Rain,Light Rain,240,2013-08-03 10:38:00
6:54 AM,68.0,66.0,93,29.94,4.0,West,6.9,-,0.08,Rain,Light Rain,260,2013-08-03 10:54:00
7:54 AM,69.1,66.9,93,29.96,5.0,WSW,8.1,-,0.01,,Overcast,250,2013-08-03 11:54:00
8:54 AM,69.1,66.9,93,29.97,9.0,West,6.9,-,0.00,,Overcast,260,2013-08-03 12:54:00
9:23 AM,69.8,66.2,88,29.97,10.0,West,4.6,-,N/A,,Overcast,270,2013-08-03 13:23:00
9:54 AM,73.0,66.9,81,29.96,10.0,NW,4.6,-,N/A,,Overcast,310,2013-08-03 13:54:00
10:54 AM,73.0,66.0,79,29.97,10.0,NNE,9.2,-,N/A,,Overcast,20,2013-08-03 14:54:00
11:36 AM,73.4,64.4,73,30.00,10.0,NW,3.5,-,N/A,,Overcast,320,2013-08-03 15:36:00
11:54 AM,73.0,64.9,76,30.00,10.0,Calm,Calm,-,N/A,,Overcast,0,2013-08-03 15:54:00
12:52 PM,75.2,64.4,69,30.02,10.0,North,5.8,-,N/A,,Mostly Cloudy,10,2013-08-03 16:52:00
12:54 PM,75.9,64.9,69,30.00,10.0,North,3.5,-,N/A,,Mostly Cloudy,10,2013-08-03 16:54:00
1:54 PM,79.0,64.9,62,30.00,10.0,North,6.9,-,N/A,,Mostly Cloudy,10,2013-08-03 17:54:00
2:29 PM,80.6,64.4,58,30.02,10.0,North,6.9,-,N/A,,Mostly Cloudy,360,2013-08-03 18:29:00
2:54 PM,80.1,64.0,58,30.01,10.0,North,8.1,-,N/A,,Mostly Cloudy,10,2013-08-03 18:54:00
3:54 PM,80.1,61.0,52,29.99,10.0,NW,5.8,-,N/A,,Mostly Cloudy,320,2013-08-03 19:54:00
4:54 PM,82.9,61.0,47,29.98,10.0,NNE,6.9,-,N/A,,Mostly Cloudy,20,2013-08-03 20:54:00
5:54 PM,80.1,61.0,52,29.99,10.0,NW,11.5,-,N/A,,Mostly Cloudy,320,2013-08-03 21:54:00
6:54 PM,80.1,61.0,52,29.99,10.0,NNW,9.2,-,N/A,,Scattered Clouds,330,2013-08-03 22:54:00
7:54 PM,78.1,57.9,50,30.00,10.0,North,11.5,-,N/A,,Scattered Clouds,350,2013-08-03 23:54:00
8:54 PM,75.0,60.1,60,30.01,10.0,North,11.5,-,N/A,,Scattered Clouds,360,2013-08-04 00:54:00
9:54 PM,72.0,55.0,55,30.03,10.0,North,11.5,-,N/A,,Scattered Clouds,360,2013-08-04 01:54:00
10:54 PM,70.0,54.0,57,30.06,10.0,North,8.1,-,N/A,,Scattered Clouds,360,2013-08-04 02:54:00
11:54 PM,68.0,52.0,56,30.06,10.0,North,8.1,-,N/A,,Partly Cloudy,10,2013-08-04 03:54:00